PORTS® Data Listing: 8773259 Port Lavaca, TX

CO-OPS RAW PORTS DATA

************************      PRELIMINARY DATA      ************************** 

     THIS RAW DATA HAS NOT BEEN SUBJECT TO THE NATIONAL OCEAN SERVICE'S        
     QUALITY CONTROL OR QUALITY ASSURANCE PROCEDURES AND DOES NOT MEET         
     THE CRITERIA AND STANDARDS OF OFFICIAL NATIONAL OCEAN SERVICE             
     DATA.  IT IS RELEASED FOR LIMITED PUBLIC USE AS PRELIMINARY DATA TO       
     BE USED ONLY WITH APPROPRIATE CAUTION.                                    

************************      PRELIMINARY DATA      ************************** 


       CD   -   Calendar date
       T    -   Time
       TZ   -   Timezone
       PW   -   Predicted water level (feet above MLLW)
       OW   -   Observed water level (feet above MLLW)
       WS   -   Wind speed (knots)
       WD   -   Wind direction (degrees true)
       WG   -   Wind gust (knots)
       AT   -   Air temperature (degrees farenheit)
       WT   -   Water temperature (degrees farenheit)
       AP   -   Air pressure (millibars)
       SA   -   Salinty (PSU - Practical Salinity Units)
       SG   -   Specific gravity
       RH   -   Relative humidity
       AG   -   Air gap (feet)
       VI   -   Visibility (nautical miles)

       ** NOTE **
       A variable that has its data fields filled with "9"s, indicates that
       data was not collected for that sample period.
       **********


STATION NAME: Port Lavaca (8773259)
****************************************************************************************************
    CD       T    TZ    PW     OW    WS   WD   WG    AT    WT    AP    SA    SG     RH    AG   VI
****************************************************************************************************
2019/11/21 13:18 CST    0.55   1.39   11  128   13  67.8  67.3 1013.0 -9.9 -9.999 -99.9 -99.99 -9.99
2019/11/21 13:24 CST    0.55   1.40   11  130   12  67.6  67.3 1012.8 -9.9 -9.999 -99.9 -99.99 -9.99
2019/11/21 13:30 CST    0.55   1.41   12  125   13  67.6  67.3 1012.7 -9.9 -9.999 -99.9 -99.99 -9.99
2019/11/21 13:36 CST    0.55   1.39   10  130   13  67.8  67.5 1012.8 -9.9 -9.999 -99.9 -99.99 -9.99
2019/11/21 13:42 CST    0.55   1.39    9  130   10  67.5  67.5 1012.6 -9.9 -9.999 -99.9 -99.99 -9.99
2019/11/21 13:48 CST    0.55   1.40    8  138   10  67.5  67.5 1012.5 -9.9 -9.999 -99.9 -99.99 -9.99
2019/11/21 13:54 CST    0.55   1.40   10  131   11  67.8  67.5 1012.7 -9.9 -9.999 -99.9 -99.99 -9.99
2019/11/21 14:00 CST    0.55   1.41   11  125   13  68.0  67.5 1012.7 -9.9 -9.999 -99.9 -99.99 -9.99
2019/11/21 14:06 CST    0.55   1.41   11  126   12  68.2  67.5 1012.6 -9.9 -9.999 -99.9 -99.99 -9.99
2019/11/21 14:12 CST    0.55   1.42   10  131   13  67.8  67.5 1012.6 -9.9 -9.999 -99.9 -99.99 -9.99
2019/11/21 14:18 CST    0.55   1.42   11  126   15  67.8  67.5 1012.6 -9.9 -9.999 -99.9 -99.99 -9.99
2019/11/21 14:24 CST    0.55   1.40   12  121   13  67.8  67.3 1012.6 -9.9 -9.999 -99.9 -99.99 -9.99
2019/11/21 14:30 CST    0.55   1.41   11  120   12  68.2  67.5 1012.6 -9.9 -9.999 -99.9 -99.99 -9.99
2019/11/21 14:36 CST    0.55   1.41   13  118   14  68.4  67.5 1012.5 -9.9 -9.999 -99.9 -99.99 -9.99
2019/11/21 14:42 CST    0.55   1.41   12  115   14  68.4  67.5 1012.6 -9.9 -9.999 -99.9 -99.99 -9.99
2019/11/21 14:48 CST    0.55   1.40   11  116   12  68.4  67.5 1012.5 -9.9 -9.999 -99.9 -99.99 -9.99
2019/11/21 14:54 CST    0.54   1.40   12  116   14  68.4  67.6 1012.5 -9.9 -9.999 -99.9 -99.99 -9.99
2019/11/21 15:00 CST    0.54   1.40   13  119   15  68.7  67.6 1012.4 -9.9 -9.999 -99.9 -99.99 -9.99
2019/11/21 15:06 CST    0.54   1.40   11  123   14  68.5  67.6 1012.4 -9.9 -9.999 -99.9 -99.99 -9.99
2019/11/21 15:12 CST    0.54   1.39   11  122   14  68.5  67.6 1012.3 -9.9 -9.999 -99.9 -99.99 -9.99
2019/11/21 15:18 CST    0.54   1.39   12  122   16  69.3  67.6 1012.4 -9.9 -9.999 -99.9 -99.99 -9.99
2019/11/21 15:24 CST    0.54   1.39   11  123   14  68.7  67.6 1012.5 -9.9 -9.999 -99.9 -99.99 -9.99
2019/11/21 15:30 CST    0.54   1.39   11  127   13  68.7  67.6 1012.4 -9.9 -9.999 -99.9 -99.99 -9.99
2019/11/21 15:36 CST    0.53   1.38   11  131   12  68.4  67.6 1012.4 -9.9 -9.999 -99.9 -99.99 -9.99
2019/11/21 15:42 CST    0.53   1.38   12  129   13  68.5  67.6 1012.4 -9.9 -9.999 -99.9 -99.99 -9.99
2019/11/21 15:48 CST    0.53   1.37   12  132   13  68.7  67.8 1012.6 -9.9 -9.999 -99.9 -99.99 -9.99
2019/11/21 15:54 CST    0.53   1.36   10  136   12  68.4  67.8 1012.6 -9.9 -9.999 -99.9 -99.99 -9.99
2019/11/21 16:00 CST    0.52   1.36   11  132   13  68.5  68.0 1012.6 -9.9 -9.999 -99.9 -99.99 -9.99
2019/11/21 16:06 CST    0.52   1.36   11  131   13  68.4  68.0 1012.7 -9.9 -9.999 -99.9 -99.99 -9.99
2019/11/21 16:12 CST    0.52   1.36   10  134   12  68.4  67.8 1012.8 -9.9 -9.999 -99.9 -99.99 -9.99
2019/11/21 16:18 CST    0.52   1.35    9  136   11  68.4  67.8 1013.0 -9.9 -9.999 -99.9 -99.99 -9.99
2019/11/21 16:24 CST    0.51   1.34   11  129   12  68.4  67.8 1012.9 -9.9 -9.999 -99.9 -99.99 -9.99
2019/11/21 16:30 CST    0.51   1.33   11  126   11  68.0  67.6 1012.8 -9.9 -9.999 -99.9 -99.99 -9.99
2019/11/21 16:36 CST    0.51   1.32   11  127   12  67.8  67.8 1012.9 -9.9 -9.999 -99.9 -99.99 -9.99
2019/11/21 16:42 CST    0.50   1.32   11  127   12  68.0  68.0 1012.8 -9.9 -9.999 -99.9 -99.99 -9.99
2019/11/21 16:48 CST    0.50   1.31   11  127   12  68.0  68.0 1012.8 -9.9 -9.999 -99.9 -99.99 -9.99
2019/11/21 16:54 CST    0.49   1.29   10  131   12  67.8  68.2 1013.0 -9.9 -9.999 -99.9 -99.99 -9.99
2019/11/21 17:00 CST    0.49   1.28   11  129   11  67.6  68.2 1013.0 -9.9 -9.999 -99.9 -99.99 -9.99
2019/11/21 17:06 CST    0.49   1.27   10  130   12  67.6  68.0 1013.0 -9.9 -9.999 -99.9 -99.99 -9.99
2019/11/21 17:12 CST    0.48   1.26   11  127   11  67.6  68.0 1012.9 -9.9 -9.999 -99.9 -99.99 -9.99
2019/11/21 17:18 CST    0.48   1.25   11  127   12  67.6  67.8 1013.0 -9.9 -9.999 -99.9 -99.99 -9.99
2019/11/21 17:24 CST    0.47   1.24    9  129   11  67.6  67.8 1013.2 -9.9 -9.999 -99.9 -99.99 -9.99
2019/11/21 17:30 CST    0.47   1.22   11  128   11  67.6  67.8 1013.0 -9.9 -9.999 -99.9 -99.99 -9.99
2019/11/21 17:36 CST    0.46   1.21   11  126   12  67.3  67.8 1012.8 -9.9 -9.999 -99.9 -99.99 -9.99
2019/11/21 17:42 CST    0.46   1.20    9  131   11  67.5  67.6 1013.2 -9.9 -9.999 -99.9 -99.99 -9.99
2019/11/21 17:48 CST    0.45   1.19    9  134   10  67.5  67.6 1013.2 -9.9 -9.999 -99.9 -99.99 -9.99
2019/11/21 17:54 CST    0.45   1.18   10  131   10  67.3  67.5 1013.1 -9.9 -9.999 -99.9 -99.99 -9.99
2019/11/21 18:00 CST    0.44   1.17   10  134   11  67.3  67.3 1013.1 -9.9 -9.999 -99.9 -99.99 -9.99
2019/11/21 18:06 CST    0.43   1.16   10  133   11  67.1  67.3 1013.0 -9.9 -9.999 -99.9 -99.99 -9.99
2019/11/21 18:12 CST    0.43   1.15    9  136   11  67.1  67.3 1013.2 -9.9 -9.999 -99.9 -99.99 -9.99
2019/11/21 18:18 CST    0.42   1.14   10  134   11  66.9  67.1 1013.1 -9.9 -9.999 -99.9 -99.99 -9.99
2019/11/21 18:24 CST    0.42   1.13   10  130   11  66.7  67.1 1013.0 -9.9 -9.999 -99.9 -99.99 -9.99
2019/11/21 18:30 CST    0.41   1.12   10  130   11  66.9  67.1 1013.0 -9.9 -9.999 -99.9 -99.99 -9.99
2019/11/21 18:36 CST    0.40   1.11   10  131   11  66.9  67.1 1013.1 -9.9 -9.999 -99.9 -99.99 -9.99
2019/11/21 18:42 CST    0.40   1.11   10  129   11  66.9  67.1 1013.0 -9.9 -9.999 -99.9 -99.99 -9.99
2019/11/21 18:48 CST    0.39   1.10    9  134   11  66.9  67.1 1013.2 -9.9 -9.999 -99.9 -99.99 -9.99
2019/11/21 18:54 CST    0.38   1.09   10  136   11  66.9  67.1 1013.0 -9.9 -9.999 -99.9 -99.99 -9.99
2019/11/21 19:00 CST    0.38   1.08   10  133   11  66.9  67.1 1013.2 -9.9 -9.999 -99.9 -99.99 -9.99
2019/11/21 19:06 CST    0.37   1.07    9  133   10  66.7  67.1 1013.3 -9.9 -9.999 -99.9 -99.99 -9.99
2019/11/21 19:12 CST    0.36   1.07   10  132   10  66.7  67.1 1013.2 -9.9 -9.999 -99.9 -99.99 -9.99
2019/11/21 19:18 CST    0.35   1.06   10  132   11  66.7  67.1 1013.1 -9.9 -9.999 -99.9 -99.99 -9.99
2019/11/21 19:24 CST    0.35   1.05   10  133   11  66.7  67.1 1013.1 -9.9 -9.999 -99.9 -99.99 -9.99
2019/11/21 19:30 CST    0.34   1.04    9  138   11  66.7  67.1 1013.2 -9.9 -9.999 -99.9 -99.99 -9.99
2019/11/21 19:36 CST    0.33   1.04   10  134   11  66.7  67.1 1013.2 -9.9 -9.999 -99.9 -99.99 -9.99
2019/11/21 19:42 CST    0.33   1.04   10  134   11  66.7  67.1 1013.2 -9.9 -9.999 -99.9 -99.99 -9.99
2019/11/21 19:48 CST    0.32   1.04   10  131   11  66.6  67.1 1013.2 -9.9 -9.999 -99.9 -99.99 -9.99
2019/11/21 19:54 CST    0.31   1.03   10  131   11  66.6  67.1 1013.2 -9.9 -9.999 -99.9 -99.99 -9.99
2019/11/21 20:00 CST    0.31   1.02    9  136   11  66.7  67.1 1013.5 -9.9 -9.999 -99.9 -99.99 -9.99
2019/11/21 20:06 CST    0.30   1.02    8  134    9  66.7  67.1 1013.6 -9.9 -9.999 -99.9 -99.99 -9.99
2019/11/21 20:12 CST    0.29   1.01    9  127    9  66.4  67.1 1013.6 -9.9 -9.999 -99.9 -99.99 -9.99
2019/11/21 20:18 CST    0.29   1.02    9  123    9  66.6  67.1 1013.6 -9.9 -9.999 -99.9 -99.99 -9.99
2019/11/21 20:24 CST    0.28   1.02    9  126    9  66.6  67.1 1013.7 -9.9 -9.999 -99.9 -99.99 -9.99
2019/11/21 20:30 CST    0.28   1.01   11  128   11  66.7  67.1 1013.4 -9.9 -9.999 -99.9 -99.99 -9.99
2019/11/21 20:36 CST    0.27   1.01   11  125   12  66.7  67.1 1013.5 -9.9 -9.999 -99.9 -99.99 -9.99
2019/11/21 20:42 CST    0.27   1.02   12  125   13  66.9  67.1 1013.4 -9.9 -9.999 -99.9 -99.99 -9.99
2019/11/21 20:48 CST    0.26   1.01   13  125   14  66.9  67.3 1013.0 -9.9 -9.999 -99.9 -99.99 -9.99
2019/11/21 20:54 CST    0.26   1.02   13  124   16  66.9  67.3 1013.2 -9.9 -9.999 -99.9 -99.99 -9.99
2019/11/21 21:00 CST    0.25   1.02    8  128   13  66.9  67.3 1013.8 -9.9 -9.999 -99.9 -99.99 -9.99
2019/11/21 21:06 CST    0.25   1.01   11  130   12  67.1  67.3 1013.4 -9.9 -9.999 -99.9 -99.99 -9.99
2019/11/21 21:12 CST    0.25   1.01   10  131   12  66.9  67.5 1013.6 -9.9 -9.999 -99.9 -99.99 -9.99
2019/11/21 21:18 CST    0.25   1.03   11  130   11  66.9  67.5 1013.5 -9.9 -9.999 -99.9 -99.99 -9.99
2019/11/21 21:24 CST    0.24   1.02   10  120   12  66.9  67.5 1013.8 -9.9 -9.999 -99.9 -99.99 -9.99
2019/11/21 21:30 CST    0.24   1.04    4   87    9  67.1  67.3 1014.4 -9.9 -9.999 -99.9 -99.99 -9.99
2019/11/21 21:36 CST    0.24   1.05    7  113    8  67.3  67.3 1014.1 -9.9 -9.999 -99.9 -99.99 -9.99
2019/11/21 21:42 CST    0.24   1.05   10  120   11  67.5  67.1 1013.8 -9.9 -9.999 -99.9 -99.99 -9.99
2019/11/21 21:48 CST    0.24   1.05   11  117   12  67.5  67.1 1013.7 -9.9 -9.999 -99.9 -99.99 -9.99
2019/11/21 21:54 CST    0.24   1.05   11  118   12  67.5  67.1 1013.6 -9.9 -9.999 -99.9 -99.99 -9.99
2019/11/21 22:00 CST    0.24   1.06   11  123   11  67.3  67.1 1013.4 -9.9 -9.999 -99.9 -99.99 -9.99
2019/11/21 22:06 CST    0.24   1.07   10  127   11  67.3  66.9 1013.5 -9.9 -9.999 -99.9 -99.99 -9.99
2019/11/21 22:12 CST    0.24   1.07   11  130   12  67.3  66.9 1013.5 -9.9 -9.999 -99.9 -99.99 -9.99
2019/11/21 22:18 CST    0.24   1.08   10  129   11  67.3  66.9 1013.6 -9.9 -9.999 -99.9 -99.99 -9.99
2019/11/21 22:24 CST    0.25   1.09   10  126   10  67.1  66.9 1013.5 -9.9 -9.999 -99.9 -99.99 -9.99
2019/11/21 22:30 CST    0.25   1.09   11  127   12  67.1  66.9 1013.3 -9.9 -9.999 -99.9 -99.99 -9.99
2019/11/21 22:36 CST    0.25   1.12   11  127   12  67.1  66.9 1013.4 -9.9 -9.999 -99.9 -99.99 -9.99
2019/11/21 22:42 CST    0.26   1.11   10  128   12  67.1  66.9 1013.7 -9.9 -9.999 -99.9 -99.99 -9.99
2019/11/21 22:48 CST    0.26   1.12    8  132   10  67.1  66.9 1013.9 -9.9 -9.999 -99.9 -99.99 -9.99
2019/11/21 22:54 CST    0.26   1.12    6  141    9  67.1  66.9 1014.1 -9.9 -9.999 -99.9 -99.99 -9.99
2019/11/21 23:00 CST    0.27   1.15    3  168    6  66.9  66.9 1014.2 -9.9 -9.999 -99.9 -99.99 -9.99
2019/11/21 23:06 CST    0.28   1.18    5  164    6  66.7  67.1 1014.0 -9.9 -9.999 -99.9 -99.99 -9.99
2019/11/21 23:12 CST    0.28   1.18    6  163    7  66.6  67.1 1014.1 -9.9 -9.999 -99.9 -99.99 -9.99
2019/11/21 23:18 CST    0.29   1.18    3  171    6  66.7  67.1 1014.2 -9.9 -9.999 -99.9 -99.99 -9.99
2019/11/21 23:24 CST    0.30   1.20    4  158    5  66.7  67.1 1014.0 -9.9 -9.999 -99.9 -99.99 -9.99
2019/11/21 23:30 CST    0.30   1.21    6  130    7  66.7  67.1 1013.9 -9.9 -9.999 -99.9 -99.99 -9.99
2019/11/21 23:36 CST    0.31   1.21    7  132    8  66.7  66.9 1013.8 -9.9 -9.999 -99.9 -99.99 -9.99
2019/11/21 23:42 CST    0.32   1.22    7  143    8  66.7  66.9 1014.0 -9.9 -9.999 -99.9 -99.99 -9.99
2019/11/21 23:48 CST    0.33   1.24    7  150    8  67.3  66.9 1014.1 -9.9 -9.999 -99.9 -99.99 -9.99
2019/11/21 23:54 CST    0.34   1.25    9  140   10  66.9  66.9 1013.5 -9.9 -9.999 -99.9 -99.99 -9.99
2019/11/22 00:00 CST    0.34   1.26   10  136   11  66.7  66.9 1013.5 -9.9 -9.999 -99.9 -99.99 -9.99
2019/11/22 00:06 CST    0.35   1.28    6  140    9  66.9  66.9 1013.7 -9.9 -9.999 -99.9 -99.99 -9.99
2019/11/22 00:12 CST    0.36   1.29    4  131    6  66.7  66.9 1013.5 -9.9 -9.999 -99.9 -99.99 -9.99
2019/11/22 00:18 CST    0.37   1.29    3  122    4  66.6  66.9 1013.5 -9.9 -9.999 -99.9 -99.99 -9.99
2019/11/22 00:24 CST    0.38   1.30    1  108    3  66.6  66.9 1013.7 -9.9 -9.999 -99.9 -99.99 -9.99
2019/11/22 00:30 CST    0.39   1.32    0  106    0  66.6  66.9 1013.7 -9.9 -9.999 -99.9 -99.99 -9.99
2019/11/22 00:36 CST    0.40   1.34    3   95    3  66.4  66.9 1013.5 -9.9 -9.999 -99.9 -99.99 -9.99
2019/11/22 00:42 CST    0.41   1.35    5  104    5  66.4  66.7 1013.3 -9.9 -9.999 -99.9 -99.99 -9.99
2019/11/22 00:48 CST    0.42   1.36    4  105    5  66.6  66.7 1013.3 -9.9 -9.999 -99.9 -99.99 -9.99
2019/11/22 00:54 CST    0.43   1.38    3   98    4  66.7  66.7 1013.3 -9.9 -9.999 -99.9 -99.99 -9.99
2019/11/22 01:00 CST    0.45   1.38    4  106    5  66.4  66.7 1013.2 -9.9 -9.999 -99.9 -99.99 -9.99
2019/11/22 01:06 CST    0.46   1.39    6  111    6  66.6  66.7 1013.0 -9.9 -9.999 -99.9 -99.99 -9.99
2019/11/22 01:12 CST    0.47   1.39    6  119    7  66.9  66.7 1013.0 -9.9 -9.999 -99.9 -99.99 -9.99
2019/11/22 01:18 CST    0.48   1.41    7  123    8  67.1  66.7 1012.9 -9.9 -9.999 -99.9 -99.99 -9.99
2019/11/22 01:24 CST    0.49   1.42    8  130    9  67.3  66.7 1012.8 -9.9 -9.999 -99.9 -99.99 -9.99
2019/11/22 01:30 CST    0.50   1.43    7  131    9  67.3  66.7 1012.8 -9.9 -9.999 -99.9 -99.99 -9.99
2019/11/22 01:36 CST    0.51   1.44    7  132    8  66.9  66.7 1012.8 -9.9 -9.999 -99.9 -99.99 -9.99
2019/11/22 01:42 CST    0.52   1.45    6  137    8  66.7  66.7 1012.9 -9.9 -9.999 -99.9 -99.99 -9.99
2019/11/22 01:48 CST    0.53   1.47    5  137    7  66.4  66.7 1012.8 -9.9 -9.999 -99.9 -99.99 -9.99
2019/11/22 01:54 CST    0.54   1.47    7  139    7  66.4  66.7 1012.6 -9.9 -9.999 -99.9 -99.99 -9.99
2019/11/22 02:00 CST    0.55   1.48    6  138    7  66.2  66.7 1012.6 -9.9 -9.999 -99.9 -99.99 -9.99
2019/11/22 02:06 CST    0.56   1.50    6  137    7  66.2  66.7 1012.5 -9.9 -9.999 -99.9 -99.99 -9.99
2019/11/22 02:12 CST    0.57   1.50    5  136    6  66.0  66.7 1012.5 -9.9 -9.999 -99.9 -99.99 -9.99
2019/11/22 02:18 CST    0.58   1.50    5  130    6  66.0  66.7 1012.5 -9.9 -9.999 -99.9 -99.99 -9.99
2019/11/22 02:24 CST    0.58   1.52    4  133    5  66.2  66.7 1012.5 -9.9 -9.999 -99.9 -99.99 -9.99
2019/11/22 02:30 CST    0.59   1.53    4  137    5  66.2  66.7 1012.6 -9.9 -9.999 -99.9 -99.99 -9.99
2019/11/22 02:36 CST    0.60   1.52    3  136    5  66.2  66.7 1012.7 -9.9 -9.999 -99.9 -99.99 -9.99
2019/11/22 02:42 CST    0.61   1.53    0  141    3  66.2  66.7 1012.7 -9.9 -9.999 -99.9 -99.99 -9.99
2019/11/22 02:48 CST    0.62   1.55    0  141    0  66.4  66.7 1012.7 -9.9 -9.999 -99.9 -99.99 -9.99
2019/11/22 02:54 CST    0.63   1.55    2  123    2  66.7  66.7 1012.5 -9.9 -9.999 -99.9 -99.99 -9.99
2019/11/22 03:00 CST    0.63   1.55    3  114    3  66.4  66.7 1012.5 -9.9 -9.999 -99.9 -99.99 -9.99
2019/11/22 03:06 CST    0.64   1.56    3  117    4  66.6  66.7 1012.6 -9.9 -9.999 -99.9 -99.99 -9.99
2019/11/22 03:12 CST    0.65   1.57    4  117    4  66.7  66.7 1012.5 -9.9 -9.999 -99.9 -99.99 -9.99
2019/11/22 03:18 CST    0.65   1.57    3  117    4  66.4  66.7 1012.5 -9.9 -9.999 -99.9 -99.99 -9.99
2019/11/22 03:24 CST    0.66   1.57    5  133    5  67.3  66.7 1012.4 -9.9 -9.999 -99.9 -99.99 -9.99
2019/11/22 03:30 CST    0.66   1.59    6  131    6  67.1  66.7 1012.3 -9.9 -9.999 -99.9 -99.99 -9.99
2019/11/22 03:36 CST    0.67   1.59    5  126    6  67.3  66.7 1012.3 -9.9 -9.999 -99.9 -99.99 -9.99
2019/11/22 03:42 CST    0.67   1.59    6  120    6  67.3  66.7 1012.2 -9.9 -9.999 -99.9 -99.99 -9.99
2019/11/22 03:48 CST    0.68   1.59    5  124    6  67.3  66.7 1012.2 -9.9 -9.999 -99.9 -99.99 -9.99
2019/11/22 03:54 CST    0.68   1.59    4  132    6  67.1  66.7 1012.2 -9.9 -9.999 -99.9 -99.99 -9.99
2019/11/22 04:00 CST    0.69   1.59    4  126    5  66.9  66.7 1012.2 -9.9 -9.999 -99.9 -99.99 -9.99
2019/11/22 04:06 CST    0.69   1.59    4  120    5  66.9  66.7 1012.3 -9.9 -9.999 -99.9 -99.99 -9.99
2019/11/22 04:12 CST    0.70   1.59    5  128    6  67.6  66.6 1012.3 -9.9 -9.999 -99.9 -99.99 -9.99
2019/11/22 04:18 CST    0.70   1.59    5  133    6  67.3  66.6 1012.2 -9.9 -9.999 -99.9 -99.99 -9.99
2019/11/22 04:24 CST    0.70   1.59    6  130    7  67.5  66.6 1012.2 -9.9 -9.999 -99.9 -99.99 -9.99
2019/11/22 04:30 CST    0.70   1.60    4  134    7  67.1  66.6 1012.3 -9.9 -9.999 -99.9 -99.99 -9.99
2019/11/22 04:36 CST    0.70   1.60    4  132    4  66.9  66.6 1012.3 -9.9 -9.999 -99.9 -99.99 -9.99
2019/11/22 04:42 CST    0.71   1.60    3  127    4  66.7  66.6 1012.4 -9.9 -9.999 -99.9 -99.99 -9.99
2019/11/22 04:48 CST    0.71   1.60    4  112    4  66.9  66.6 1012.4 -9.9 -9.999 -99.9 -99.99 -9.99
2019/11/22 04:54 CST    0.71   1.59    2   96    4  66.6  66.6 1012.6 -9.9 -9.999 -99.9 -99.99 -9.99
2019/11/22 05:00 CST    0.71   1.59    0  346    2  67.1  66.6 1012.7 -9.9 -9.999 -99.9 -99.99 -9.99
2019/11/22 05:06 CST    0.71   1.59    2  108    2  66.9  66.6 1012.7 -9.9 -9.999 -99.9 -99.99 -9.99
2019/11/22 05:12 CST    0.71   1.59    3  109    3  66.9  66.6 1012.6 -9.9 -9.999 -99.9 -99.99 -9.99
2019/11/22 05:18 CST    0.71   1.58    4  115    4  66.9  66.6 1012.6 -9.9 -9.999 -99.9 -99.99 -9.99
2019/11/22 05:24 CST    0.71   1.57    5  126    6  67.5  66.6 1012.6 -9.9 -9.999 -99.9 -99.99 -9.99
2019/11/22 05:30 CST    0.71   1.57    7  137    7  67.6  66.6 1012.5 -9.9 -9.999 -99.9 -99.99 -9.99
2019/11/22 05:36 CST    0.70   1.55    6  140    7  67.6  66.6 1012.7 -9.9 -9.999 -99.9 -99.99 -9.99
2019/11/22 05:42 CST    0.70   1.56    5  127    6  67.3  66.6 1012.8 -9.9 -9.999 -99.9 -99.99 -9.99
2019/11/22 05:48 CST    0.70   1.55    3  129    5  67.3  66.6 1012.9 -9.9 -9.999 -99.9 -99.99 -9.99
2019/11/22 05:54 CST    0.70   1.55    7  141    8  68.0  66.6 1012.6 -9.9 -9.999 -99.9 -99.99 -9.99
2019/11/22 06:00 CST    0.69   1.54    9  141    9  67.5  66.6 1012.7 -9.9 -9.999 -99.9 -99.99 -9.99
2019/11/22 06:06 CST    0.69   1.53    8  133    9  67.5  66.6 1012.8 -9.9 -9.999 -99.9 -99.99 -9.99
2019/11/22 06:12 CST    0.69   1.54    6  135    9  66.7  66.6 1013.0 -9.9 -9.999 -99.9 -99.99 -9.99
2019/11/22 06:18 CST    0.68   1.54    5  128    6  66.4  66.6 1013.2 -9.9 -9.999 -99.9 -99.99 -9.99
2019/11/22 06:24 CST    0.68   1.52    5  131    6  66.4  66.6 1013.2 -9.9 -9.999 -99.9 -99.99 -9.99
2019/11/22 06:30 CST    0.67   1.52    6  139    7  66.4  66.6 1013.3 -9.9 -9.999 -99.9 -99.99 -9.99
2019/11/22 06:36 CST    0.67   1.51    3  130    5  66.4  66.6 1013.4 -9.9 -9.999 -99.9 -99.99 -9.99
2019/11/22 06:42 CST    0.66   1.50    2  117    3  66.2  66.6 1013.5 -9.9 -9.999 -99.9 -99.99 -9.99
2019/11/22 06:48 CST    0.66   1.49    1   91    2  66.0  66.6 1013.6 -9.9 -9.999 -99.9 -99.99 -9.99
2019/11/22 06:54 CST    0.65   1.49    2  109    2  66.2  66.6 1013.7 -9.9 -9.999 -99.9 -99.99 -9.99
2019/11/22 07:00 CST    0.64   1.48    1   94    2  66.6  66.6 1013.8 -9.9 -9.999 -99.9 -99.99 -9.99
2019/11/22 07:06 CST    0.64 -99.99 -999 -999 -999 -99.9 -99.9 -999.9 -9.9 -9.999 -99.9 -99.99 -9.99
2019/11/22 07:12 CST    0.63 -99.99 -999 -999 -999 -99.9 -99.9 -999.9 -9.9 -9.999 -99.9 -99.99 -9.99
2019/11/22 07:18 CST    0.62 -99.99 -999 -999 -999 -99.9 -99.9 -999.9 -9.9 -9.999 -99.9 -99.99 -9.99
2019/11/22 07:24 CST    0.62 -99.99 -999 -999 -999 -99.9 -99.9 -999.9 -9.9 -9.999 -99.9 -99.99 -9.99
2019/11/22 07:30 CST    0.61 -99.99 -999 -999 -999 -99.9 -99.9 -999.9 -9.9 -9.999 -99.9 -99.99 -9.99
2019/11/22 07:36 CST    0.60 -99.99 -999 -999 -999 -99.9 -99.9 -999.9 -9.9 -9.999 -99.9 -99.99 -9.99
2019/11/22 07:42 CST    0.59 -99.99 -999 -999 -999 -99.9 -99.9 -999.9 -9.9 -9.999 -99.9 -99.99 -9.99
2019/11/22 07:48 CST    0.59 -99.99 -999 -999 -999 -99.9 -99.9 -999.9 -9.9 -9.999 -99.9 -99.99 -9.99
2019/11/22 07:54 CST    0.58 -99.99 -999 -999 -999 -99.9 -99.9 -999.9 -9.9 -9.999 -99.9 -99.99 -9.99
2019/11/22 08:00 CST    0.57 -99.99 -999 -999 -999 -99.9 -99.9 -999.9 -9.9 -9.999 -99.9 -99.99 -9.99
2019/11/22 08:06 CST    0.56 -99.99 -999 -999 -999 -99.9 -99.9 -999.9 -9.9 -9.999 -99.9 -99.99 -9.99
2019/11/22 08:12 CST    0.55 -99.99 -999 -999 -999 -99.9 -99.9 -999.9 -9.9 -9.999 -99.9 -99.99 -9.99
2019/11/22 08:18 CST    0.55 -99.99 -999 -999 -999 -99.9 -99.9 -999.9 -9.9 -9.999 -99.9 -99.99 -9.99
2019/11/22 08:24 CST    0.54 -99.99 -999 -999 -999 -99.9 -99.9 -999.9 -9.9 -9.999 -99.9 -99.99 -9.99
2019/11/22 08:30 CST    0.53 -99.99 -999 -999 -999 -99.9 -99.9 -999.9 -9.9 -9.999 -99.9 -99.99 -9.99
2019/11/22 08:36 CST    0.52 -99.99 -999 -999 -999 -99.9 -99.9 -999.9 -9.9 -9.999 -99.9 -99.99 -9.99
2019/11/22 08:42 CST    0.51 -99.99 -999 -999 -999 -99.9 -99.9 -999.9 -9.9 -9.999 -99.9 -99.99 -9.99
2019/11/22 08:48 CST    0.50 -99.99 -999 -999 -999 -99.9 -99.9 -999.9 -9.9 -9.999 -99.9 -99.99 -9.99
2019/11/22 08:54 CST    0.50 -99.99 -999 -999 -999 -99.9 -99.9 -999.9 -9.9 -9.999 -99.9 -99.99 -9.99
2019/11/22 09:00 CST    0.49 -99.99 -999 -999 -999 -99.9 -99.9 -999.9 -9.9 -9.999 -99.9 -99.99 -9.99
2019/11/22 09:06 CST    0.48 -99.99 -999 -999 -999 -99.9 -99.9 -999.9 -9.9 -9.999 -99.9 -99.99 -9.99
2019/11/22 09:12 CST    0.47 -99.99 -999 -999 -999 -99.9 -99.9 -999.9 -9.9 -9.999 -99.9 -99.99 -9.99
2019/11/22 09:18 CST    0.47 -99.99 -999 -999 -999 -99.9 -99.9 -999.9 -9.9 -9.999 -99.9 -99.99 -9.99
2019/11/22 09:24 CST    0.46 -99.99 -999 -999 -999 -99.9 -99.9 -999.9 -9.9 -9.999 -99.9 -99.99 -9.99
2019/11/22 09:30 CST    0.45 -99.99 -999 -999 -999 -99.9 -99.9 -999.9 -9.9 -9.999 -99.9 -99.99 -9.99
2019/11/22 09:36 CST    0.45 -99.99 -999 -999 -999 -99.9 -99.9 -999.9 -9.9 -9.999 -99.9 -99.99 -9.99
2019/11/22 09:42 CST    0.44 -99.99 -999 -999 -999 -99.9 -99.9 -999.9 -9.9 -9.999 -99.9 -99.99 -9.99
2019/11/22 09:48 CST    0.43 -99.99 -999 -999 -999 -99.9 -99.9 -999.9 -9.9 -9.999 -99.9 -99.99 -9.99
2019/11/22 09:54 CST    0.43 -99.99 -999 -999 -999 -99.9 -99.9 -999.9 -9.9 -9.999 -99.9 -99.99 -9.99
2019/11/22 10:00 CST    0.42 -99.99 -999 -999 -999 -99.9 -99.9 -999.9 -9.9 -9.999 -99.9 -99.99 -9.99
2019/11/22 10:06 CST    0.42 -99.99 -999 -999 -999 -99.9 -99.9 -999.9 -9.9 -9.999 -99.9 -99.99 -9.99
2019/11/22 10:12 CST    0.42 -99.99 -999 -999 -999 -99.9 -99.9 -999.9 -9.9 -9.999 -99.9 -99.99 -9.99
2019/11/22 10:18 CST    0.41 -99.99 -999 -999 -999 -99.9 -99.9 -999.9 -9.9 -9.999 -99.9 -99.99 -9.99
2019/11/22 10:24 CST    0.41 -99.99 -999 -999 -999 -99.9 -99.9 -999.9 -9.9 -9.999 -99.9 -99.99 -9.99
2019/11/22 10:30 CST    0.40 -99.99 -999 -999 -999 -99.9 -99.9 -999.9 -9.9 -9.999 -99.9 -99.99 -9.99
2019/11/22 10:36 CST    0.40 -99.99 -999 -999 -999 -99.9 -99.9 -999.9 -9.9 -9.999 -99.9 -99.99 -9.99
2019/11/22 10:42 CST    0.40 -99.99 -999 -999 -999 -99.9 -99.9 -999.9 -9.9 -9.999 -99.9 -99.99 -9.99
2019/11/22 10:48 CST    0.40 -99.99 -999 -999 -999 -99.9 -99.9 -999.9 -9.9 -9.999 -99.9 -99.99 -9.99
2019/11/22 10:54 CST    0.40 -99.99 -999 -999 -999 -99.9 -99.9 -999.9 -9.9 -9.999 -99.9 -99.99 -9.99
2019/11/22 11:00 CST    0.39 -99.99 -999 -999 -999 -99.9 -99.9 -999.9 -9.9 -9.999 -99.9 -99.99 -9.99
2019/11/22 11:06 CST    0.39 -99.99 -999 -999 -999 -99.9 -99.9 -999.9 -9.9 -9.999 -99.9 -99.99 -9.99
2019/11/22 11:12 CST    0.39 -99.99 -999 -999 -999 -99.9 -99.9 -999.9 -9.9 -9.999 -99.9 -99.99 -9.99
2019/11/22 11:18 CST    0.39 -99.99 -999 -999 -999 -99.9 -99.9 -999.9 -9.9 -9.999 -99.9 -99.99 -9.99
2019/11/22 11:24 CST    0.39 -99.99 -999 -999 -999 -99.9 -99.9 -999.9 -9.9 -9.999 -99.9 -99.99 -9.99
2019/11/22 11:30 CST    0.40 -99.99 -999 -999 -999 -99.9 -99.9 -999.9 -9.9 -9.999 -99.9 -99.99 -9.99
2019/11/22 11:36 CST    0.40 -99.99 -999 -999 -999 -99.9 -99.9 -999.9 -9.9 -9.999 -99.9 -99.99 -9.99
2019/11/22 11:42 CST    0.40 -99.99 -999 -999 -999 -99.9 -99.9 -999.9 -9.9 -9.999 -99.9 -99.99 -9.99
2019/11/22 11:48 CST    0.40 -99.99 -999 -999 -999 -99.9 -99.9 -999.9 -9.9 -9.999 -99.9 -99.99 -9.99
2019/11/22 11:54 CST    0.40 -99.99 -999 -999 -999 -99.9 -99.9 -999.9 -9.9 -9.999 -99.9 -99.99 -9.99
2019/11/22 12:00 CST    0.41 -99.99 -999 -999 -999 -99.9 -99.9 -999.9 -9.9 -9.999 -99.9 -99.99 -9.99
2019/11/22 12:06 CST    0.41 -99.99 -999 -999 -999 -99.9 -99.9 -999.9 -9.9 -9.999 -99.9 -99.99 -9.99
2019/11/22 12:12 CST    0.41 -99.99 -999 -999 -999 -99.9 -99.9 -999.9 -9.9 -9.999 -99.9 -99.99 -9.99
2019/11/22 12:18 CST    0.42 -99.99 -999 -999 -999 -99.9 -99.9 -999.9 -9.9 -9.999 -99.9 -99.99 -9.99
2019/11/22 12:24 CST    0.42 -99.99 -999 -999 -999 -99.9 -99.9 -999.9 -9.9 -9.999 -99.9 -99.99 -9.99
2019/11/22 12:30 CST    0.42 -99.99 -999 -999 -999 -99.9 -99.9 -999.9 -9.9 -9.999 -99.9 -99.99 -9.99
2019/11/22 12:36 CST    0.43 -99.99 -999 -999 -999 -99.9 -99.9 -999.9 -9.9 -9.999 -99.9 -99.99 -9.99
2019/11/22 12:42 CST    0.43 -99.99 -999 -999 -999 -99.9 -99.9 -999.9 -9.9 -9.999 -99.9 -99.99 -9.99
2019/11/22 12:48 CST    0.44 -99.99 -999 -999 -999 -99.9 -99.9 -999.9 -9.9 -9.999 -99.9 -99.99 -9.99
2019/11/22 12:54 CST    0.44 -99.99 -999 -999 -999 -99.9 -99.9 -999.9 -9.9 -9.999 -99.9 -99.99 -9.99
2019/11/22 13:00 CST    0.45 -99.99 -999 -999 -999 -99.9 -99.9 -999.9 -9.9 -9.999 -99.9 -99.99 -9.99
2019/11/22 13:06 CST    0.45 -99.99 -999 -999 -999 -99.9 -99.9 -999.9 -9.9 -9.999 -99.9 -99.99 -9.99
2019/11/22 13:12 CST    0.46 -99.99 -999 -999 -999 -99.9 -99.9 -999.9 -9.9 -9.999 -99.9 -99.99 -9.99
2019/11/22 13:18 CST    0.46 -99.99 -999 -999 -999 -99.9 -99.9 -999.9 -9.9 -9.999 -99.9 -99.99 -9.99